Volver al catálogo

EXPLORER 25

INJUN-4

ActivoCienciaPO
NORAD 932·PAYLOAD·🇺🇸 United States

Lanzado Nov 21, 1964 desde Vandenberg Space Force Base

Loading…

Próximos Pases (próximas 24 horas)

TLE

ActualizadoSource: Space-Track

Época: Sep 14, 2026, 14:06 UTC

1 00932U 64076B   26257.58750898  .00000315  00000-0  10267-3 0  9997
2 00932  81.3404 309.6780 1118421  65.5946 305.7667 12.67313163830459

Sigue EXPLORER 25 en tiempo real con AllMySat

Download on the App Store